Rome, NY

1:49 AM EST on February 20, 2018 (GMT -0500)
Griffiss

Weather History for KRME - May, 2013

Change the Weather History Date:

Wednesday, May 15, 2013

  Actual Average Record
Temperature  
Mean Temperature 50 °F -  
Max Temperature 68 °F 72 °F 84 °F (2014)
Min Temperature 33 °F 46 °F 33 °F (2013)
Degree Days  
Heating Degree Days 16    
Moisture  
Dew Point 40 °F    
Average Humidity 65    
Maximum Humidity 85    
Minimum Humidity 48    
Precipitation  
Precipitation 0.04 in - - ()
Sea Level Pressure  
Sea Level Pressure 29.80 in    
Wind  
Wind Speed 8 mph (SE)    
Max Wind Speed 17 mph    
Max Gust Speed 28 mph    
Visibility 10 miles    
Events Rain    
Averages and records for this station are not official NWS values.
T = Trace of Precipitation, MM = Missing Value Source: NWS Daily Summary

Daily Weather History Graph

Daily Weather History Graph

Search for Another Location

Airport or City:

Trip Planner

Search our weather history database for the weather conditions in past years. The results will help you decide how hot, cold, wet, or windy it might be!

Date:

Astronomy

May. 15, 2013 Rise Set
Actual Time 5:37 AM EDT 8:19 PM EDT
Civil Twilight 5:04 AM EDT 8:52 PM EDT
Nautical Twilight 4:23 AM EDT 9:33 PM EDT
Astronomical Twilight 3:36 AM EDT 10:21 PM EDT
Moon 10:12 AM EDT (5/15) 12:02 AM EDT (5/15)
Length of Visible Light 15h 47m
Length of Day
14h 41m
Waxing Crescent, 26% of the Moon is Illuminated
May 15
Waxing Crescent
May 18
First Quarter
May 25
Full
May 31
Last Quarter
Jun 8
New

Hourly Weather History & Observations

Time (EDT) Temp. Windchill Dew Point Humidity Pressure Visibility Wind Dir Wind Speed Gust Speed Precip Events Conditions
12:53 AM 34.0 °F 29.8 °F 28.9 °F 82% 30.04 in 10.0 mi SE 4.6 mph - N/A   Clear
1:53 AM 33.1 °F 28.7 °F 28.9 °F 85% 30.03 in 10.0 mi SE 4.6 mph - N/A   Clear
2:53 AM 33.1 °F 27.7 °F 28.0 °F 82% 30.02 in 10.0 mi ESE 5.8 mph - N/A   Clear
3:53 AM 36.0 °F 31.1 °F 28.0 °F 73% 30.00 in 10.0 mi ESE 5.8 mph - N/A   Scattered Clouds
4:53 AM 39.0 °F 34.8 °F 28.0 °F 65% 29.98 in 10.0 mi SE 5.8 mph - N/A   Overcast
5:53 AM 39.0 °F 34.0 °F 30.0 °F 70% 29.96 in 10.0 mi SE 6.9 mph - N/A   Overcast
6:53 AM 45.0 °F 39.3 °F 28.9 °F 53% 29.94 in 10.0 mi ESE 11.5 mph - N/A   Overcast
7:53 AM 46.9 °F - 32.0 °F 56% 29.91 in 10.0 mi ESE 12.7 mph - N/A   Mostly Cloudy
8:53 AM 48.9 °F - 32.0 °F 52% 29.90 in 10.0 mi SE 8.1 mph - N/A   Scattered Clouds
9:53 AM 46.9 °F - 39.0 °F 74% 29.89 in 10.0 mi SE 6.9 mph - 0.01 in Rain Light Rain
10:53 AM 50.0 °F - 41.0 °F 71% 29.82 in 10.0 mi SE 10.4 mph - 0.00 in Rain Light Rain
11:53 AM 48.9 °F - 43.0 °F 80% 29.74 in 5.0 mi ESE 15.0 mph - 0.02 in Rain Light Rain
12:53 PM 55.9 °F - 48.9 °F 77% 29.74 in 10.0 mi East 12.7 mph - 0.01 in   Overcast
1:53 PM 57.9 °F - 46.9 °F 67% 29.66 in 10.0 mi SE 17.3 mph 23.0 mph N/A   Mostly Cloudy
2:53 PM 60.1 °F - 48.0 °F 64% 29.65 in 10.0 mi ESE 17.3 mph 20.7 mph N/A   Overcast
3:53 PM 64.0 °F - 51.1 °F 63% 29.60 in 10.0 mi ESE 16.1 mph - N/A   Scattered Clouds
4:53 PM 66.9 °F - 52.0 °F 59% 29.57 in 10.0 mi ESE 10.4 mph - N/A   Partly Cloudy
5:53 PM 64.9 °F - 52.0 °F 63% 29.58 in 10.0 mi ESE 9.2 mph - N/A   Mostly Cloudy
6:53 PM 66.0 °F - 54.0 °F 65% 29.62 in 10.0 mi SE 3.5 mph - N/A   Mostly Cloudy
7:53 PM 66.9 °F - 46.9 °F 49% 29.64 in 10.0 mi WNW 16.1 mph 27.6 mph N/A   Clear
8:53 PM 66.0 °F - 46.0 °F 48% 29.66 in 10.0 mi West 15.0 mph - N/A   Clear
9:53 PM 60.1 °F - 44.1 °F 55% 29.71 in 10.0 mi WNW 8.1 mph - N/A   Clear
10:53 PM 59.0 °F - 39.0 °F 48% 29.73 in 10.0 mi West 10.4 mph - N/A   Clear
11:53 PM 52.0 °F - 39.9 °F 63% 29.73 in 10.0 mi Calm Calm - N/A   Clear